{"data":{"norad_id":50465,"intl_designator":"2021-131A","name":"ZY-1 02E","alt_names":[],"object_type":"PAYLOAD","status":"ACTIVE","operator":null,"country":"PRC","launch_date":"2021-12-26","launch_site_code":"TAISC","launch_vehicle":null,"mission":null,"orbit_class":"UNKNOWN","rcs_meters":null,"size_class":null,"mass_kg":null,"dimensions":null,"purposes":[],"wikipedia_slug":null,"has_3d_model":false,"image_url":null,"decayed_at":null,"tle_current":{"epoch":"2026-05-25T05:08:39.405408Z","epoch_age_seconds":59702,"freshness":"FRESH","line1":"1 50465U 21131A   26145.21434497 -.00000101  00000+0 -20238-4 0  9992","line2":"2 50465  98.4428 222.7909 0001294 127.9857 232.1446 14.35389910231127","mean_motion":14.3538991,"eccentricity":0.0001294,"inclination_deg":98.4428,"raan_deg":222.7909,"arg_perigee_deg":127.9857,"mean_anomaly_deg":232.1446,"bstar":-2.0238e-5,"rev_number":23112,"period_min":100.32117335979,"perigee_km":772.84547881729,"apogee_km":774.69639259105,"semimajor_km":7151.9079357042,"source":"CELESTRAK","updated_at":"2026-05-25T13:37:57.317304Z"}}}